Weather History for KBIL - March, 2012

Change the Weather History Date:

Tuesday, March 20, 2012

  Actual Average Record
Temperature  
Mean Temperature 36 °F 39 °F  
Max Temperature 45 °F 50 °F 76 °F (1997)
Min Temperature 27 °F 28 °F 0 °F (2002)
Degree Days  
Heating Degree Days 29 26  
Month to date heating degree days 399 574  
Since 1 July heating degree days 4907 5539  
Cooling Degree Days 0 0  
Month to date cooling degree days 0 0  
Year to date cooling degree days 0 0  
Moisture  
Dew Point 20 °F    
Average Humidity 56    
Maximum Humidity 75    
Minimum Humidity 37    
Precipitation  
Precipitation 0.00 in 0.04 in 0.39 in (1941)
Month to date precipitation 0.70 0.60  
Year to date precipitation 1.55 1.56  
Snow  
Snow 0.00 in 0.40 in 2.80 in (2002)
Month to date snowfall 5.9 6.5  
Since 1 July snowfall 34.7 41.0  
Snow Depth 1.00 in    
Sea Level Pressure  
Sea Level Pressure 29.83 in    
Wind  
Wind Speed 12 mph (SW)    
Max Wind Speed 30 mph    
Max Gust Speed 37 mph    
Visibility 10 miles    
Events      
T = Trace of Precipitation, MM = Missing Value Source: NWS Daily Summary

Daily Weather History Graph

Daily Weather History Graph

Search for Another Location

Airport or City:

Trip Planner

Search our weather history database for the weather conditions in past years. The results will help you decide how hot, cold, wet, or windy it might be!

Date:

Astronomy

Mar. 20, 2012 Rise Set
Actual Time 7:16 AM MDT 7:27 PM MDT
Civil Twilight 6:46 AM MDT 7:57 PM MDT
Nautical Twilight 6:11 AM MDT 8:32 PM MDT
Astronomical Twilight 5:35 AM MDT 9:08 PM MDT
Moon 6:04 AM MDT (3/20) 5:56 PM MDT (3/20)
Length of Visible Light 13h 10m
Length of Day
12h 11m
Waning Crescent, 3% of the Moon is Illuminated
Mar 20
Waning Crescent
Mar 22
New
Mar 30
First Quarter
Apr 6
Full
Apr 13
Last Quarter

Hourly Weather History & Observations

Time (MDT) Temp. Windchill Dew Point Humidity Pressure Visibility Wind Dir Wind Speed Gust Speed Precip Events Conditions
12:53 AM 32.0 °F 25.6 °F 19.9 °F 61% 29.80 in 10.0 mi SW 6.9 mph - N/A   Clear
1:53 AM 30.9 °F 23.5 °F 19.9 °F 64% 29.81 in 10.0 mi SW 8.1 mph - N/A   Partly Cloudy
3:53 AM 28.0 °F 17.5 °F 18.0 °F 66% 29.82 in 10.0 mi West 12.7 mph - N/A   Partly Cloudy
4:53 AM 28.0 °F 20.8 °F 18.0 °F 66% 29.82 in 10.0 mi SW 6.9 mph - N/A   Clear
5:53 AM 28.0 °F 20.0 °F 21.9 °F 78% 29.85 in 10.0 mi SW 8.1 mph - N/A   Clear
6:53 AM 28.0 °F 20.0 °F 19.9 °F 72% 29.87 in 10.0 mi WSW 8.1 mph - N/A   Clear
7:53 AM 28.0 °F 19.3 °F 18.0 °F 66% 29.88 in 10.0 mi WSW 9.2 mph - N/A   Clear
8:53 AM 28.9 °F 20.4 °F 18.0 °F 64% 29.89 in 10.0 mi SSW 9.2 mph - N/A   Clear
9:53 AM 33.1 °F 28.7 °F 18.0 °F 54% 29.87 in 10.0 mi SW 4.6 mph - N/A   Partly Cloudy
10:53 AM 37.0 °F 31.0 °F 16.0 °F 42% 29.86 in 10.0 mi SW 8.1 mph - N/A   Partly Cloudy
11:53 AM 39.9 °F 30.2 °F 15.1 °F 36% 29.83 in 10.0 mi SW 20.7 mph 31.1 mph N/A   Clear
12:53 PM 42.1 °F 32.6 °F 19.0 °F 40% 29.80 in 10.0 mi SW 23.0 mph 35.7 mph N/A   Clear
1:53 PM 44.1 °F 35.7 °F 19.0 °F 37% 29.81 in 10.0 mi SW 20.7 mph 31.1 mph N/A   Mostly Cloudy
2:53 PM 43.0 °F 33.3 °F 21.9 °F 43% 29.81 in 10.0 mi SW 25.3 mph 33.4 mph N/A   Mostly Cloudy
3:53 PM 44.6 °F 37.4 °F 21.2 °F 39% 29.75 in 10.0 mi SW 16.1 mph 25.3 mph N/A   Mostly Cloudy
4:53 PM 44.6 °F 38.8 °F 21.2 °F 39% 29.75 in 10.0 mi SW 11.5 mph - N/A   Mostly Cloudy
5:53 PM 44.1 °F 37.1 °F 21.9 °F 42% 29.80 in 10.0 mi WSW 15.0 mph - N/A   Scattered Clouds
6:53 PM 43.0 °F 36.0 °F 24.1 °F 47% 29.81 in 10.0 mi WSW 13.8 mph - N/A   Scattered Clouds
7:53 PM 43.0 °F 37.2 °F 24.1 °F 47% 29.82 in 10.0 mi WSW 10.4 mph - N/A   Scattered Clouds
8:53 PM 42.1 °F 34.9 °F 24.1 °F 49% 29.81 in 10.0 mi WSW 13.8 mph - N/A   Clear
9:53 PM 42.1 °F 35.2 °F 23.0 °F 47% 29.83 in 10.0 mi West 12.7 mph - N/A   Clear
10:53 PM 41.0 °F 34.3 °F 23.0 °F 49% 29.85 in 10.0 mi WSW 11.5 mph - N/A   Clear
11:53 PM 37.9 °F 32.7 °F 23.0 °F 55% 29.85 in 10.0 mi SSW 6.9 mph - N/A   Clear